Cairns, Australia

2:15 AM AEST on August 23, 2017 (GMT +1000)
Cairns International

Weather History for YBCS - August, 2014

Change the Weather History Date:

Sunday, August 3, 2014

  Actual Average Record
Temperature  
Mean Temperature 74 °F -  
Max Temperature 78 °F 80 °F 82 °F (2017)
Min Temperature 69 °F 64 °F 54 °F (2012)
Cooling Degree Days 8    
Growing Degree Days 24 (Base 50)    
Moisture  
Dew Point 64 °F    
Average Humidity 71    
Maximum Humidity 88    
Minimum Humidity 51    
Precipitation  
Precipitation 0.02 in 0.03 in - ()
Sea Level Pressure  
Sea Level Pressure 30.09 in    
Wind  
Wind Speed 10 mph ()    
Max Wind Speed 17 mph    
Max Gust Speed -    
Visibility 6.5 miles    
Events Rain    
Averages and records for this station are not official NWS values.
T = Trace of Precipitation, MM = Missing Value Source: Averaged Metar Reports

Daily Weather History Graph

Daily Weather History Graph

Search for Another Location

Airport or City:

Trip Planner

Search our weather history database for the weather conditions in past years. The results will help you decide how hot, cold, wet, or windy it might be!

Date:

Astronomy

Aug. 03, 2014 Rise Set
Actual Time 6:41 AM AEST 6:04 PM AEST
Civil Twilight 6:19 AM AEST 6:27 PM AEST
Nautical Twilight 5:53 AM AEST 6:53 PM AEST
Astronomical Twilight 5:27 AM AEST 7:19 PM AEST
Moon 11:07 AM AEST (8/3) 11:59 PM AEST (8/3)
Length of Visible Light 12h 08m
Length of Day
11h 23m
Waxing Crescent, 40% of the Moon is Illuminated
Aug 3
Waxing Crescent
Aug 4
First Quarter
Aug 11
Full
Aug 17
Last Quarter
Aug 26
New

Hourly Weather History & Observations

Time (AEST) Temp. Dew Point Humidity Pressure Visibility Wind Dir Wind Speed Gust Speed Precip Events Conditions
12:00 AM 71 °F 64 °F 71% 30.11 in - South 10.4 mph - -  
12:00 AM 71.6 °F 64.4 °F 78% 30.09 in 6.2 mi South 10.4 mph - N/A   Scattered Clouds
12:30 AM 71.6 °F 62.6 °F 73% 30.09 in 6.2 mi South 10.4 mph - N/A   Partly Cloudy
1:00 AM 71 °F 63 °F 68% 30.10 in - South 9.2 mph - -  
1:00 AM 71.6 °F 62.6 °F 73% 30.09 in 6.2 mi South 9.2 mph - N/A   Partly Cloudy
1:30 AM 71.6 °F 62.6 °F 73% 30.06 in 6.2 mi SSE 10.4 mph - N/A   Partly Cloudy
2:00 AM 71.6 °F 62.6 °F 73% 30.06 in 6.2 mi South 10.4 mph - N/A   Partly Cloudy
2:30 AM 69.8 °F 62.6 °F 78% 30.06 in 6.2 mi SSE 8.1 mph - N/A   Partly Cloudy
3:00 AM 71 °F 63 °F 68% 30.06 in - South 9.2 mph - -  
3:00 AM 69.8 °F 62.6 °F 78% 30.06 in 6.2 mi South 9.2 mph - N/A   Partly Cloudy
3:30 AM 71.6 °F 62.6 °F 73% 30.06 in 6.2 mi South 9.2 mph - N/A   Scattered Clouds
4:00 AM 71 °F 63 °F 69% 30.07 in - SSE 8.1 mph - -  
4:00 AM 71.6 °F 62.6 °F 73% 30.06 in 6.2 mi SSE 8.1 mph - N/A   Scattered Clouds
4:30 AM 69.8 °F 62.6 °F 78% 30.04 in 6.2 mi South 8.1 mph - N/A   Scattered Clouds
5:00 AM 71.6 °F 64.4 °F 78% 30.04 in 6.2 mi South 9.2 mph - N/A   Scattered Clouds
5:30 AM 71.6 °F 62.6 °F 73% 30.06 in 6.2 mi South 8.1 mph - N/A   Scattered Clouds
6:00 AM 71 °F 63 °F 70% 30.07 in - South 10.4 mph - -  
6:00 AM 71.6 °F 62.6 °F 73% 30.06 in 6.2 mi South 10.4 mph - N/A   Scattered Clouds
6:30 AM 71.6 °F 62.6 °F 73% 30.06 in 6.2 mi South 10.4 mph - N/A   Scattered Clouds
7:00 AM 71 °F 64 °F 71% 30.09 in - South 10.4 mph - -  
7:00 AM 71.6 °F 64.4 °F 78% 30.06 in 6.2 mi South 10.4 mph - N/A   Scattered Clouds
7:30 AM 71.6 °F 64.4 °F 78% 30.09 in 6.2 mi South 10.4 mph - N/A   Partly Cloudy
8:00 AM 73.4 °F 64.4 °F 73% 30.09 in 6.2 mi South 10.4 mph - N/A   Scattered Clouds
8:30 AM 75.2 °F 64.4 °F 69% 30.09 in 6.2 mi South 9.2 mph - N/A   Scattered Clouds
9:00 AM 75 °F 64 °F 61% 30.12 in 12 mi SSE 12.7 mph - -   Mostly Cloudy
9:00 AM 75.2 °F 64.4 °F 69% 30.12 in 6.2 mi SSE 12.7 mph - N/A   Scattered Clouds
9:30 AM 75.2 °F 64.4 °F 69% 30.12 in 6.2 mi SSE 11.5 mph - N/A   Mostly Cloudy
10:00 AM 78 °F 65 °F 56% 30.14 in - ESE 11.5 mph - -  
10:00 AM 77.0 °F 66.2 °F 69% 30.12 in 6.2 mi ESE 11.5 mph - N/A   Mostly Cloudy
10:30 AM 77.0 °F 64.4 °F 65% 30.12 in 6.2 mi SE 10.4 mph - N/A   Mostly Cloudy
11:00 AM 77.0 °F 62.6 °F 61% 30.12 in 6.2 mi ESE 11.5 mph - N/A   Mostly Cloudy
11:30 AM 78.8 °F 62.6 °F 57% 30.09 in 6.2 mi SE 11.5 mph - N/A   Mostly Cloudy
12:00 PM 77 °F 64 °F 56% 30.09 in - ESE 12.7 mph - -   Overcast
12:00 PM 77.0 °F 64.4 °F 65% 30.09 in 6.2 mi ESE 12.7 mph - N/A   Mostly Cloudy
12:30 PM 77.0 °F 64.4 °F 65% 30.06 in 6.2 mi ESE 12.7 mph - N/A   Mostly Cloudy
1:00 PM 77 °F 64 °F 56% 30.08 in - SSE 10.4 mph - -  
1:00 PM 77.0 °F 64.4 °F 65% 30.06 in 6.2 mi SSE 10.4 mph - N/A   Mostly Cloudy
1:30 PM 75.2 °F 66.2 °F 73% 30.06 in 6.2 mi South 6.9 mph - N/A   Mostly Cloudy
2:00 PM 77.0 °F 66.2 °F 69% 30.06 in 6.2 mi South 5.8 mph - N/A   Scattered Clouds
2:30 PM 77.0 °F 64.4 °F 65% 30.04 in 6.2 mi SE 13.8 mph - N/A   Scattered Clouds
3:00 PM 78 °F 63 °F 51% 30.06 in 16 mi ESE 13.8 mph - -   Mostly Cloudy
3:00 PM 77.0 °F 62.6 °F 61% 30.04 in 6.2 mi ESE 13.8 mph - N/A   Scattered Clouds
3:30 PM 77.0 °F 62.6 °F 61% 30.04 in 6.2 mi SSE 17.3 mph - N/A   Scattered Clouds
4:00 PM 76 °F 63 °F 55% 30.07 in - SSE 16.1 mph - -  
4:00 PM 77.0 °F 62.6 °F 61% 30.06 in 6.2 mi SSE 16.1 mph - N/A   Mostly Cloudy
4:30 PM 75.2 °F 62.6 °F 65% 30.06 in 6.2 mi SE 15.0 mph - N/A   Scattered Clouds
5:00 PM 75.2 °F 64.4 °F 69% 30.06 in 6.2 mi SSE 10.4 mph - N/A   Mostly Cloudy
5:30 PM 71.6 °F 68.0 °F 88% 30.06 in 6.2 mi SE 9.2 mph - N/A   Mostly Cloudy
6:00 PM 73 °F 65 °F 69% 30.09 in - SSE 9.2 mph - -   Overcast
6:00 PM 73.4 °F 64.4 °F 73% 30.06 in 6.2 mi SSE 9.2 mph - N/A   Mostly Cloudy
7:00 PM 72 °F 65 °F 74% 30.12 in - South 11.5 mph - -  
7:00 PM 71.6 °F 66.2 °F 83% 30.09 in 6.2 mi South 11.5 mph - N/A Rain Light Rain Showers
7:30 PM 73.4 °F 64.4 °F 73% 30.09 in 6.2 mi South 9.2 mph - N/A   Mostly Cloudy
8:00 PM 71.6 °F 64.4 °F 78% 30.12 in 6.2 mi SSE 8.1 mph - N/A   Mostly Cloudy
8:30 PM 71.6 °F 64.4 °F 78% 30.12 in 6.2 mi South 9.2 mph - N/A Rain Light Rain Showers
8:48 PM 71.6 °F 66.2 °F 83% 30.12 in 6.2 mi South 9.2 mph - N/A Rain Light Rain Showers
9:00 PM 71 °F 66 °F 81% 30.15 in - South 8.1 mph - -   Overcast
9:00 PM 71.6 °F 66.2 °F 83% 30.15 in 6.2 mi South 8.1 mph - N/A   Mostly Cloudy
9:30 PM 71.6 °F 64.4 °F 78% 30.12 in 6.2 mi South 6.9 mph - N/A   Scattered Clouds
10:00 PM 72 °F 65 °F 74% 30.16 in - South 8.1 mph - -  
10:00 PM 71.6 °F 66.2 °F 83% 30.15 in 6.2 mi South 8.1 mph - N/A   Mostly Cloudy
10:30 PM 71.6 °F 66.2 °F 83% 30.15 in 6.2 mi South 10.4 mph - N/A Rain Light Rain Showers
11:00 PM 71.6 °F 64.4 °F 78% 30.15 in 6.2 mi South 10.4 mph - N/A Rain Light Rain Showers
11:30 PM 69.8 °F 64.4 °F 83% 30.12 in 6.2 mi South 10.4 mph - N/A Rain Light Rain Showers